Weather in Vtorovo

Russia / Vladimir Oblast     56°16′03″N   40°47′48″E
temp.,
°C
wind,
m/s
gust,
m/s
humid.,
%
clouds,
%
prec.,
mm/h
press.,
hPa
HPBL,
m
8 march, mon
mon800:00−12wsw238854 0.0 99324
03:00−8wnw499371 0.9 995296
06:00−12w479385 0.0 995136
09:00−10wsw359492 0.0 996187
12:00−7wnw3589100 0.3 998513
15:00−6nw588497 0.3 1000959
18:00−10nw489093 0.1 1003167
21:00−13nw369673 0.1 1006113
9 march, tue
tue900:00−15nw349778 0.0 100874
03:00−17nw349874 0.1 101160
06:00−19nnw369869 0.0 1012104
09:00−19nnw469463 0.0 1014252
12:00−15nnw469080 0.0 1015445
15:00−13nw569090 0.1 1016587
18:00−16nnw4894100 0.1 1017213
21:00−19nnw3897100 0.1 1020180
10 march, wed
wed1000:00−22nnw469899 0.0 1022129
03:00−24nnw469895 0.1 1023118
06:00−27nnw359749 0.0 102594
09:00−25n479426 0.0 1027256
12:00−19nnw458743 0.0 1027448
15:00−17nw478638 0.0 1027542
18:00−19wnw349370 0.0 102735
21:00−19nw379656 0.0 1029135
11 march, thu
thu1100:00−22nw339986 0.0 103028
03:00−23nw239970 0.0 103120
06:00−24nw239934 0.0 103120
09:00−19nw249626 0.0 1032156
12:00−14wnw338747 0.0 1032295
15:00−12w348954 0.0 1031308
18:00−15w239217 0.0 103120
21:00−17wsw22918 0.0 103220
12 march, fri
fri1200:00−18sw33960 0.0 103222
03:00−19sw34980 0.0 103244
06:00−20ssw33990 0.0 103236
09:00−16ssw47900 0.0 1032250
12:00−10ssw47800 0.0 1031493
15:00−8ssw59770 0.0 1029735
18:00−11s510830 0.0 1028233
21:00−14s513900 0.0 1028336